| time (UTC) | temp F | wind direction | speed MPH | gust MPH | rain 1hr in | rain 24hr in | rain mn in | humidity % | barometer mb |
| 20260505192936 | 62 | 127 | 0.0 | 0.0 | 0.00 | 0.33 | 0.33 | 99 | 1012.5 |
| 20260505192434 | 62 | 118 | 0.0 | 0.0 | 0.05 | 0.33 | 0.33 | 99 | 1012.6 |
| 20260505191931 | 62 | 119 | 0.0 | 0.0 | 0.12 | 0.33 | 0.33 | 99 | 1012.6 |
| 20260505191430 | 62 | 129 | 0.0 | 1.0 | 0.24 | 0.32 | 0.32 | 98 | 1012.7 |
| 20260505190926 | 62 | 129 | 0.0 | 1.0 | 0.24 | 0.31 | 0.31 | 98 | 1012.8 |
| 20260505190421 | 62 | 187 | 0.0 | 1.0 | 0.14 | 0.28 | 0.28 | 98 | 1012.9 |
| 20260505185917 | 62 | 128 | 0.0 | 0.0 | 0.05 | 0.26 | 0.26 | 98 | 1012.8 |
| 20260505185415 | 62 | 118 | 1.0 | 2.0 | 0.12 | 0.26 | 0.26 | 98 | 1012.9 |
| 20260505184910 | 62 | 130 | 0.0 | 2.0 | 0.12 | 0.25 | 0.25 | 98 | 1013.0 |
| 20260505184407 | 62 | 126 | 0.0 | 2.0 | 0.12 | 0.24 | 0.24 | 97 | 1012.9 |
| 20260505183905 | 62 | 145 | 0.0 | 1.0 | 0.31 | 0.23 | 0.23 | 97 | 1013.0 |
| 20260505183401 | 62 | 111 | 1.0 | 2.0 | 0.31 | 0.21 | 0.21 | 96 | 1013.0 |
| 20260505182858 | 62 | 150 | 0.0 | 1.0 | 0.07 | 0.17 | 0.17 | 96 | 1013.4 |
| 20260505182355 | 62 | 121 | 0.0 | 1.0 | 0.00 | 0.16 | 0.16 | 96 | 1013.3 |
| 20260505181851 | 62 | 129 | 0.0 | 1.0 | 0.00 | 0.16 | 0.16 | 96 | 1013.3 |
| 20260505181349 | 62 | 148 | 0.0 | 2.0 | 0.05 | 0.16 | 0.16 | 96 | 1013.2 |
| 20260505180845 | 62 | 162 | 2.0 | 3.0 | 0.12 | 0.16 | 0.16 | 95 | 1013.2 |
| 20260505180342 | 62 | 130 | 2.0 | 3.0 | 0.26 | 0.15 | 0.15 | 95 | 1013.4 |
| 20260505175839 | 62 | 337 | 4.0 | 6.0 | 0.31 | 0.14 | 0.14 | 93 | 1013.5 |
| 20260505175335 | 63 | 239 | 2.0 | 3.0 | 0.35 | 0.11 | 0.11 | 92 | 1013.7 |
| 20260505174831 | 64 | 133 | 2.0 | 3.0 | 0.24 | 0.08 | 0.08 | 92 | 1013.5 |
| 20260505174329 | 64 | 200 | 0.0 | 1.0 | 0.12 | 0.05 | 0.05 | 90 | 1013.4 |
| 20260505173824 | 64 | 193 | 1.0 | 1.0 | 0.12 | 0.04 | 0.04 | 88 | 1013.4 |
| 20260505173321 | 64 | 132 | 1.0 | 1.0 | 0.05 | 0.03 | 0.03 | 87 | 1013.1 |
| 20260505172818 | 65 | 226 | 2.0 | 2.0 | 0.00 | 0.02 | 0.02 | 85 | 1012.9 |
| 20260505172316 | 65 | 125 | 3.0 | 6.0 | 0.07 | 0.02 | 0.02 | 84 | 1013.1 |
| 20260505171815 | 66 | 206 | 3.0 | 8.0 | 0.14 | 0.02 | 0.02 | 81 | 1013.2 |
| 20260505171313 | 69 | 187 | 3.0 | 6.0 | 0.00 | 0.00 | 0.00 | 72 | 1013.1 |
| 20260505170808 | 69 | 159 | 2.0 | 6.0 | 0.00 | 0.00 | 0.00 | 69 | 1012.9 |
| 20260505170306 | 70 | 127 | 6.0 | 8.0 | 0.00 | 0.00 | 0.00 | 68 | 1013.0 |
| 20260505165801 | 69 | 188 | 2.0 | 5.0 | 0.00 | 0.00 | 0.00 | 71 | 1012.9 |
| 20260505165257 | 69 | 158 | 0.0 | 2.0 | 0.00 | 0.00 | 0.00 | 70 | 1013.2 |
| 20260505164753 | 68 | 110 | 3.0 | 6.0 | 0.00 | 0.00 | 0.00 | 70 | 1013.2 |
| 20260505164250 | 68 | 143 | 3.0 | 9.0 | 0.00 | 0.00 | 0.00 | 70 | 1013.2 |
| 20260505163749 | 68 | 131 | 4.0 | 6.0 | 0.00 | 0.00 | 0.00 | 70 | 1013.3 |
| 20260505163247 | 68 | 166 | 4.0 | 8.0 | 0.00 | 0.00 | 0.00 | 70 | 1013.5 |
| 20260505162744 | 68 | 249 | 3.0 | 6.0 | 0.00 | 0.00 | 0.00 | 69 | 1013.4 |
| 20260505162241 | 68 | 212 | 4.0 | 7.0 | 0.00 | 0.00 | 0.00 | 69 | 1013.5 |
| 20260505161737 | 68 | 162 | 4.0 | 8.0 | 0.00 | 0.00 | 0.00 | 69 | 1013.5 |
| 20260505161235 | 68 | 151 | 4.0 | 7.0 | 0.00 | 0.00 | 0.00 | 68 | 1013.3 |
| 20260505160732 | 67 | 224 | 4.0 | 9.0 | 0.00 | 0.00 | 0.00 | 69 | 1013.3 |
| 20260505160230 | 67 | 135 | 2.0 | 3.0 | 0.00 | 0.00 | 0.00 | 70 | 1013.4 |
| 20260505153209 | 66 | 131 | 1.0 | 5.0 | 0.00 | 0.00 | 0.00 | 69 | 1013.6 |
| 20260505152706 | 66 | 111 | 2.0 | 3.0 | 0.00 | 0.00 | 0.00 | 69 | 1013.5 |
| 20260505152202 | 66 | 133 | 0.0 | 2.0 | 0.00 | 0.00 | 0.00 | 69 | 1013.5 |
| 20260505151657 | 66 | 92 | 1.0 | 2.0 | 0.00 | 0.00 | 0.00 | 69 | 1013.3 |
| 20260505151156 | 66 | 151 | 3.0 | 6.0 | 0.00 | 0.00 | 0.00 | 69 | 1013.3 |
| 20260505150651 | 66 | 231 | 5.0 | 8.0 | 0.00 | 0.00 | 0.00 | 68 | 1013.5 |
| 20260505150148 | 66 | 108 | 1.0 | 3.0 | 0.00 | 0.00 | 0.00 | 69 | 1013.4 |
| 20260505140617 | 66 | 170 | 1.0 | 3.0 | 0.00 | 0.00 | 0.00 | 70 | 1013.1 |
| 20260505140114 | 66 | 142 | 2.0 | 3.0 | 0.00 | 0.00 | 0.00 | 71 | 1013.2 |
| 20260505125030 | 62 | 127 | 0.0 | 2.0 | 0.00 | 0.00 | 0.00 | 82 | 1013.4 |
| 20260505124527 | 62 | 132 | 1.0 | 5.0 | 0.00 | 0.00 | 0.00 | 82 | 1013.2 |
| 20260505124023 | 61 | 116 | 1.0 | 2.0 | 0.00 | 0.00 | 0.00 | 84 | 1013.4 |
| 20260505123520 | 61 | 131 | 0.0 | 2.0 | 0.00 | 0.00 | 0.00 | 86 | 1013.7 |
| 20260505123016 | 61 | 132 | 0.0 | 2.0 | 0.00 | 0.00 | 0.00 | 87 | 1013.6 |
| 20260505122513 | 60 | 123 | 0.0 | 1.0 | 0.00 | 0.00 | 0.00 | 88 | 1014.0 |
| 20260505122010 | 60 | 141 | 0.0 | 1.0 | 0.00 | 0.00 | 0.00 | 90 | 1013.6 |
| 20260505121506 | 60 | 142 | 0.0 | 1.0 | 0.00 | 0.00 | 0.00 | 90 | 1013.6 |
| 20260505121003 | 60 | 132 | 1.0 | 1.0 | 0.00 | 0.00 | 0.00 | 92 | 1013.8 |
| 20260505120459 | 59 | 147 | 0.0 | 2.0 | 0.00 | 0.00 | 0.00 | 93 | 1013.6 |
| 20260505115958 | 59 | 127 | 0.0 | 0.0 | 0.00 | 0.00 | 0.00 | 94 | 1013.7 |
| 20260505115455 | 59 | 131 | 0.0 | 0.0 | 0.00 | 0.00 | 0.00 | 94 | 1013.8 |
| 20260505114953 | 59 | 128 | 0.0 | 0.0 | 0.00 | 0.00 | 0.00 | 94 | 1013.7 |
| 20260505114449 | 59 | 125 | 0.0 | 0.0 | 0.00 | 0.00 | 0.00 | 94 | 1013.8 |
| 20260505113946 | 59 | 116 | 0.0 | 0.0 | 0.00 | 0.00 | 0.00 | 94 | 1013.8 |
| 20260505113442 | 59 | 123 | 0.0 | 0.0 | 0.00 | 0.00 | 0.00 | 94 | 1013.7 |
| 20260505112938 | 59 | 123 | 0.0 | 0.0 | 0.00 | 0.00 | 0.00 | 93 | 1013.7 |
| 20260505112436 | 59 | 123 | 0.0 | 0.0 | 0.00 | 0.00 | 0.00 | 93 | 1013.6 |
| 20260505111932 | 59 | 117 | 0.0 | 0.0 | 0.00 | 0.00 | 0.00 | 93 | 1013.6 |
| 20260505111426 | 59 | 126 | 0.0 | 0.0 | 0.00 | 0.00 | 0.00 | 93 | 1013.6 |
| 20260505110923 | 59 | 119 | 0.0 | 0.0 | 0.00 | 0.00 | 0.00 | 92 | 1013.6 |
| 20260505110420 | 59 | 119 | 0.0 | 0.0 | 0.00 | 0.00 | 0.00 | 92 | 1013.7 |
| 20260505101850 | 62 | 250 | 0.0 | 2.0 | 0.00 | 0.00 | 0.00 | 82 | 1013.8 |
| 20260505101345 | 62 | 226 | 1.0 | 3.0 | 0.00 | 0.00 | 0.00 | 79 | 1013.8 |
| 20260505100842 | 63 | 95 | 2.0 | 5.0 | 0.00 | 0.00 | 0.00 | 76 | 1013.9 |
| 20260505100338 | 64 | 219 | 2.0 | 7.0 | 0.00 | 0.00 | 0.00 | 74 | 1014.0 |
| 20260505095834 | 64 | 339 | 3.0 | 5.0 | 0.00 | 0.00 | 0.00 | 72 | 1014.0 |
| 20260505095332 | 65 | 347 | 4.0 | 7.0 | 0.00 | 0.00 | 0.00 | 70 | 1013.9 |
| 20260505094828 | 66 | 123 | 1.0 | 3.0 | 0.00 | 0.00 | 0.00 | 66 | 1014.0 |
| 20260505094325 | 66 | 31 | 4.0 | 6.0 | 0.00 | 0.00 | 0.00 | 64 | 1013.6 |
| 20260505093820 | 66 | 19 | 3.0 | 6.0 | 0.00 | 0.00 | 0.00 | 63 | 1013.7 |
| 20260505093318 | 66 | 94 | 1.0 | 2.0 | 0.00 | 0.00 | 0.00 | 62 | 1013.4 |
| 20260505092814 | 66 | 63 | 1.0 | 3.0 | 0.00 | 0.00 | 0.00 | 61 | 1012.8 |
| 20260505092313 | 66 | 141 | 1.0 | 1.0 | 0.00 | 0.00 | 0.00 | 61 | 1012.7 |
| 20260505091810 | 66 | 181 | 0.0 | 2.0 | 0.00 | 0.00 | 0.00 | 61 | 1012.3 |
| 20260505091308 | 66 | 154 | 1.0 | 2.0 | 0.00 | 0.00 | 0.00 | 62 | 1012.0 |
| 20260505090806 | 66 | 131 | 1.0 | 2.0 | 0.00 | 0.00 | 0.00 | 61 | 1011.9 |
| 20260505090304 | 66 | 130 | 1.0 | 3.0 | 0.00 | 0.00 | 0.00 | 61 | 1012.0 |
| 20260505085801 | 66 | 174 | 1.0 | 2.0 | 0.00 | 0.00 | 0.00 | 62 | 1011.9 |
| 20260505085259 | 66 | 158 | 3.0 | 3.0 | 0.00 | 0.00 | 0.00 | 61 | 1011.7 |
| 20260505084756 | 66 | 148 | 1.0 | 3.0 | 0.00 | 0.00 | 0.00 | 61 | 1011.8 |
| 20260505084255 | 66 | 119 | 1.0 | 3.0 | 0.00 | 0.00 | 0.00 | 62 | 1011.6 |
| 20260505083751 | 66 | 124 | 1.0 | 3.0 | 0.00 | 0.00 | 0.00 | 62 | 1011.6 |
| 20260505083248 | 66 | 172 | 2.0 | 5.0 | 0.00 | 0.00 | 0.00 | 61 | 1011.7 |
| 20260505082744 | 66 | 158 | 2.0 | 3.0 | 0.00 | 0.00 | 0.00 | 61 | 1011.4 |
| 20260505082242 | 66 | 132 | 0.0 | 3.0 | 0.00 | 0.00 | 0.00 | 61 | 1011.5 |
| 20260505081737 | 66 | 129 | 3.0 | 8.0 | 0.00 | 0.00 | 0.00 | 61 | 1011.2 |
| 20260505081235 | 66 | 244 | 2.0 | 6.0 | 0.00 | 0.00 | 0.00 | 61 | 1011.2 |
| 20260505080732 | 67 | 99 | 1.0 | 10.0 | 0.00 | 0.00 | 0.00 | 60 | 1011.2 |
| 20260505080227 | 66 | 145 | 4.0 | 5.0 | 0.00 | 0.00 | 0.00 | 61 | 1011.2 |
| 20260505075723 | 67 | 216 | 1.0 | 7.0 | 0.00 | 0.00 | 0.00 | 60 | 1011.3 |
| 20260505075220 | 67 | 170 | 1.0 | 6.0 | 0.00 | 0.00 | 0.00 | 60 | 1011.3 |
| 20260505074718 | 67 | 142 | 3.0 | 7.0 | 0.00 | 0.00 | 0.00 | 60 | 1011.4 |
| 20260505074215 | 67 | 146 | 3.0 | 5.0 | 0.00 | 0.00 | 0.00 | 60 | 1011.3 |
| 20260505073712 | 67 | 152 | 1.0 | 6.0 | 0.00 | 0.00 | 0.00 | 59 | 1011.2 |
| 20260505073210 | 67 | 184 | 3.0 | 8.0 | 0.00 | 0.00 | 0.00 | 59 | 1011.3 |
| 20260505072706 | 67 | 184 | 2.0 | 7.0 | 0.00 | 0.00 | 0.00 | 59 | 1011.3 |
| 20260505072202 | 67 | 142 | 2.0 | 5.0 | 0.00 | 0.00 | 0.00 | 59 | 1011.2 |
| 20260505071658 | 67 | 319 | 4.0 | 6.0 | 0.00 | 0.00 | 0.00 | 59 | 1011.1 |
| 20260505071155 | 67 | 98 | 3.0 | 6.0 | 0.00 | 0.00 | 0.00 | 60 | 1011.1 |
| 20260505070653 | 67 | 141 | 1.0 | 1.0 | 0.00 | 0.00 | 0.00 | 60 | 1011.3 |
| 20260505070149 | 67 | 128 | 0.0 | 6.0 | 0.00 | 0.00 | 0.00 | 60 | 1011.2 |
| 20260505065645 | 67 | 248 | 2.0 | 3.0 | 0.00 | 0.00 | 0.00 | 59 | 1011.2 |
| 20260505065142 | 67 | 119 | 2.0 | 2.0 | 0.00 | 0.00 | 0.00 | 59 | 1011.1 |
| 20260505064638 | 67 | 73 | 3.0 | 5.0 | 0.00 | 0.00 | 0.00 | 60 | 1011.0 |
| 20260505064136 | 67 | 134 | 2.0 | 5.0 | 0.00 | 0.00 | 0.00 | 59 | 1011.0 |
| 20260505063634 | 67 | 220 | 4.0 | 7.0 | 0.00 | 0.00 | 0.00 | 59 | 1011.0 |
| 20260505063130 | 67 | 147 | 2.0 | 3.0 | 0.00 | 0.00 | 0.00 | 60 | 1010.9 |
| 20260505062626 | 67 | 177 | 1.0 | 2.0 | 0.00 | 0.00 | 0.00 | 60 | 1010.9 |
| 20260505062124 | 67 | 178 | 1.0 | 3.0 | 0.00 | 0.00 | 0.00 | 60 | 1010.9 |
| 20260505061621 | 67 | 176 | 1.0 | 5.0 | 0.00 | 0.00 | 0.00 | 60 | 1010.9 |
| 20260505061119 | 67 | 133 | 1.0 | 6.0 | 0.00 | 0.00 | 0.00 | 59 | 1011.0 |
| 20260505060616 | 67 | 141 | 1.0 | 5.0 | 0.00 | 0.00 | 0.00 | 60 | 1011.0 |
| 20260505060113 | 67 | 138 | 3.0 | 3.0 | 0.00 | 0.00 | 0.00 | 60 | 1010.8 |
| 20260505055608 | 68 | 129 | 2.0 | 7.0 | 0.00 | 0.00 | 0.00 | 59 | 1011.0 |
| 20260505055105 | 68 | 130 | 0.0 | 5.0 | 0.00 | 0.00 | 0.00 | 59 | 1010.8 |
| 20260505054602 | 68 | 195 | 4.0 | 6.0 | 0.00 | 0.00 | 0.00 | 59 | 1010.9 |
| 20260505054101 | 68 | 128 | 0.0 | 7.0 | 0.00 | 0.00 | 0.00 | 59 | 1010.9 |
| 20260505053557 | 68 | 136 | 4.0 | 6.0 | 0.00 | 0.00 | 0.00 | 59 | 1010.6 |
| 20260505053054 | 68 | 122 | 0.0 | 5.0 | 0.00 | 0.00 | 0.00 | 59 | 1010.7 |
| 20260505052550 | 68 | 119 | 3.0 | 5.0 | 0.00 | 0.00 | 0.00 | 59 | 1010.7 |
| 20260505052048 | 68 | 125 | 2.0 | 5.0 | 0.00 | 0.00 | 0.00 | 60 | 1010.7 |
| 20260505051545 | 67 | 157 | 2.0 | 5.0 | 0.00 | 0.00 | 0.00 | 59 | 1010.8 |
| 20260505051043 | 68 | 135 | 2.0 | 5.0 | 0.00 | 0.00 | 0.00 | 60 | 1010.9 |
| 20260505050541 | 68 | 129 | 1.0 | 5.0 | 0.00 | 0.00 | 0.00 | 60 | 1010.7 |
| 20260505041509 | 67 | 145 | 0.0 | 1.0 | 0.00 | 0.00 | 0.00 | 60 | 1011.1 |
| 20260505041006 | 67 | 131 | 0.0 | 0.0 | 0.00 | 0.00 | 0.00 | 61 | 1011.1 |
| 20260505040503 | 68 | 214 | 0.0 | 3.0 | 0.00 | 0.00 | 0.00 | 59 | 1011.0 |
| 20260505040000 | 68 | 111 | 0.0 | 1.0 | 0.00 | 0.11 | 0.11 | 59 | 1011.2 |
| 20260505035456 | 67 | 130 | 0.0 | 0.0 | 0.00 | 0.11 | 0.11 | 60 | 1011.2 |
| 20260505034953 | 68 | 128 | 0.0 | 0.0 | 0.00 | 0.11 | 0.11 | 60 | 1011.5 |
| 20260505034449 | 68 | 98 | 0.0 | 0.0 | 0.00 | 0.11 | 0.11 | 59 | 1011.5 |
| 20260505033947 | 68 | 127 | 0.0 | 0.0 | 0.00 | 0.11 | 0.11 | 59 | 1011.2 |
| 20260505033443 | 68 | 140 | 0.0 | 0.0 | 0.00 | 0.11 | 0.11 | 59 | 1011.2 |
| 20260505032942 | 68 | 135 | 0.0 | 0.0 | 0.00 | 0.11 | 0.11 | 59 | 1011.4 |
| 20260505032439 | 68 | 133 | 0.0 | 0.0 | 0.00 | 0.11 | 0.11 | 58 | 1011.4 |
| 20260505031935 | 68 | 137 | 0.0 | 1.0 | 0.00 | 0.11 | 0.11 | 58 | 1011.2 |
| 20260505031432 | 68 | 133 | 0.0 | 0.0 | 0.00 | 0.11 | 0.11 | 58 | 1011.2 |
| 20260505030929 | 68 | 140 | 0.0 | 0.0 | 0.00 | 0.11 | 0.11 | 57 | 1011.4 |
| 20260505030425 | 68 | 123 | 0.0 | 0.0 | 0.00 | 0.11 | 0.11 | 58 | 1011.2 |
| 20260505025920 | 69 | 127 | 0.0 | 0.0 | 0.00 | 0.11 | 0.11 | 57 | 1011.2 |
| 20260505025418 | 69 | 121 | 0.0 | 0.0 | 0.00 | 0.11 | 0.11 | 57 | 1011.0 |
| 20260505024917 | 69 | 145 | 0.0 | 0.0 | 0.00 | 0.11 | 0.11 | 57 | 1011.0 |
| 20260505024414 | 69 | 134 | 0.0 | 0.0 | 0.00 | 0.11 | 0.11 | 57 | 1010.8 |
| 20260505023911 | 69 | 129 | 0.0 | 0.0 | 0.00 | 0.11 | 0.11 | 59 | 1010.9 |
| 20260505023408 | 69 | 122 | 0.0 | 0.0 | 0.00 | 0.11 | 0.11 | 58 | 1010.6 |
| 20260505022905 | 69 | 128 | 0.0 | 0.0 | 0.00 | 0.11 | 0.11 | 58 | 1010.4 |
| 20260505022402 | 69 | 129 | 0.0 | 0.0 | 0.00 | 0.11 | 0.11 | 57 | 1010.5 |
| 20260505021859 | 69 | 131 | 0.0 | 1.0 | 0.00 | 0.11 | 0.11 | 56 | 1010.7 |
| 20260505021355 | 70 | 125 | 0.0 | 0.0 | 0.00 | 0.11 | 0.11 | 56 | 1010.5 |
| 20260505020852 | 70 | 127 | 0.0 | 0.0 | 0.00 | 0.11 | 0.11 | 56 | 1010.2 |
| 20260505020347 | 70 | 120 | 0.0 | 0.0 | 0.00 | 0.11 | 0.11 | 56 | 1010.2 |
| 20260505015844 | 71 | 134 | 0.0 | 1.0 | 0.00 | 0.11 | 0.11 | 55 | 1010.0 |
| 20260505015341 | 71 | 127 | 0.0 | 2.0 | 0.00 | 0.11 | 0.11 | 55 | 1010.0 |
| 20260505014839 | 71 | 129 | 0.0 | 1.0 | 0.00 | 0.11 | 0.11 | 56 | 1009.8 |
| 20260505014335 | 71 | 139 | 0.0 | 1.0 | 0.00 | 0.11 | 0.11 | 54 | 1009.8 |
| 20260505013832 | 71 | 138 | 1.0 | 2.0 | 0.00 | 0.11 | 0.11 | 54 | 1009.6 |
| 20260505013329 | 71 | 128 | 0.0 | 1.0 | 0.00 | 0.11 | 0.11 | 54 | 1009.8 |
| 20260505012828 | 72 | 187 | 3.0 | 3.0 | 0.00 | 0.11 | 0.11 | 53 | 1009.6 |
| 20260505012325 | 72 | 148 | 1.0 | 3.0 | 0.00 | 0.11 | 0.11 | 53 | 1009.7 |
| 20260505011821 | 72 | 146 | 0.0 | 5.0 | 0.00 | 0.11 | 0.11 | 53 | 1009.3 |
| 20260505011318 | 72 | 153 | 3.0 | 3.0 | 0.00 | 0.11 | 0.11 | 53 | 1009.2 |
| 20260505010814 | 72 | 191 | 4.0 | 5.0 | 0.00 | 0.11 | 0.11 | 53 | 1009.3 |
| 20260505010310 | 73 | 104 | 2.0 | 5.0 | 0.00 | 0.11 | 0.11 | 53 | 1009.1 |
| 20260505005806 | 72 | 131 | 4.0 | 7.0 | 0.00 | 0.11 | 0.11 | 53 | 1009.3 |
| 20260505005304 | 73 | 112 | 0.0 | 1.0 | 0.00 | 0.11 | 0.11 | 52 | 1009.3 |
| 20260505004801 | 73 | 141 | 0.0 | 1.0 | 0.00 | 0.11 | 0.11 | 51 | 1009.4 |
| 20260505004256 | 73 | 131 | 2.0 | 6.0 | 0.00 | 0.11 | 0.11 | 51 | 1009.3 |
| 20260505003754 | 74 | 214 | 2.0 | 5.0 | 0.00 | 0.11 | 0.11 | 51 | 1009.4 |
| 20260505003252 | 74 | 135 | 2.0 | 5.0 | 0.00 | 0.11 | 0.11 | 50 | 1009.5 |
| 20260505002748 | 74 | 139 | 0.0 | 3.0 | 0.00 | 0.11 | 0.11 | 50 | 1009.4 |
| 20260505002245 | 74 | 129 | 1.0 | 3.0 | 0.00 | 0.11 | 0.11 | 49 | 1009.2 |
| 20260505001743 | 74 | 139 | 1.0 | 1.0 | 0.00 | 0.11 | 0.11 | 49 | 1009.5 |
| 20260505001240 | 75 | 189 | 1.0 | 2.0 | 0.00 | 0.11 | 0.11 | 49 | 1009.4 |
| 20260505000737 | 75 | 103 | 1.0 | 5.0 | 0.00 | 0.11 | 0.11 | 48 | 1009.7 |
| 20260505000235 | 75 | 96 | 2.0 | 7.0 | 0.00 | 0.11 | 0.11 | 48 | 1009.6 |
| 20260504235731 | 76 | 125 | 1.0 | 2.0 | 0.00 | 0.11 | 0.11 | 47 | 1009.3 |
| 20260504235227 | 76 | 246 | 2.0 | 5.0 | 0.00 | 0.11 | 0.11 | 47 | 1009.4 |
| 20260504234725 | 76 | 186 | 1.0 | 5.0 | 0.00 | 0.11 | 0.11 | 47 | 1009.2 |
| 20260504234222 | 77 | 142 | 3.0 | 9.0 | 0.00 | 0.11 | 0.11 | 47 | 1009.4 |
| 20260504233718 | 77 | 155 | 2.0 | 5.0 | 0.00 | 0.11 | 0.11 | 46 | 1009.6 |
| 20260504233214 | 77 | 140 | 1.0 | 6.0 | 0.00 | 0.11 | 0.11 | 47 | 1009.7 |
| 20260504232711 | 77 | 158 | 5.0 | 8.0 | 0.00 | 0.11 | 0.11 | 46 | 1009.7 |
| 20260504232208 | 76 | 136 | 2.0 | 3.0 | 0.00 | 0.11 | 0.11 | 47 | 1009.8 |
| 20260504231705 | 76 | 117 | 2.0 | 5.0 | 0.00 | 0.11 | 0.11 | 47 | 1009.8 |
| 20260504231201 | 76 | 121 | 1.0 | 2.0 | 0.00 | 0.11 | 0.11 | 48 | 1009.7 |
| 20260504230657 | 77 | 146 | 4.0 | 7.0 | 0.00 | 0.11 | 0.11 | 47 | 1010.2 |
| 20260504230156 | 77 | 124 | 2.0 | 3.0 | 0.00 | 0.11 | 0.11 | 46 | 1010.2 |
| 20260504225654 | 77 | 140 | 2.0 | 6.0 | 0.00 | 0.11 | 0.11 | 46 | 1010.3 |
| 20260504225150 | 77 | 128 | 4.0 | 10.0 | 0.00 | 0.11 | 0.11 | 46 | 1010.7 |
| 20260504224647 | 77 | 150 | 3.0 | 6.0 | 0.00 | 0.11 | 0.11 | 45 | 1010.6 |
| 20260504224144 | 77 | 218 | 2.0 | 6.0 | 0.00 | 0.11 | 0.11 | 45 | 1010.8 |
| 20260504223641 | 77 | 192 | 2.0 | 5.0 | 0.00 | 0.11 | 0.11 | 46 | 1010.9 |
| 20260504223137 | 77 | 146 | 2.0 | 8.0 | 0.00 | 0.11 | 0.11 | 45 | 1010.8 |
| 20260504222634 | 78 | 167 | 4.0 | 8.0 | 0.00 | 0.11 | 0.11 | 44 | 1011.0 |
| 20260504222131 | 78 | 215 | 2.0 | 6.0 | 0.00 | 0.11 | 0.11 | 43 | 1011.0 |
| 20260504221628 | 78 | 187 | 3.0 | 9.0 | 0.00 | 0.11 | 0.11 | 45 | 1010.9 |
| 20260504221125 | 79 | 228 | 7.0 | 13.0 | 0.00 | 0.11 | 0.11 | 43 | 1010.9 |
| 20260504220621 | 79 | 120 | 6.0 | 7.0 | 0.00 | 0.11 | 0.11 | 44 | 1011.0 |
| 20260504220120 | 80 | 202 | 3.0 | 14.0 | 0.00 | 0.11 | 0.11 | 43 | 1011.1 |
| 20260504215615 | 80 | 248 | 9.0 | 11.0 | 0.00 | 0.11 | 0.11 | 42 | 1011.1 |
| 20260504215113 | 80 | 135 | 1.0 | 7.0 | 0.00 | 0.11 | 0.11 | 43 | 1011.1 |
| 20260504214609 | 80 | 220 | 3.0 | 11.0 | 0.00 | 0.11 | 0.11 | 44 | 1011.0 |
| 20260504214105 | 80 | 182 | 3.0 | 9.0 | 0.00 | 0.11 | 0.11 | 45 | 1011.1 |
| 20260504213601 | 80 | 193 | 1.0 | 8.0 | 0.00 | 0.11 | 0.11 | 47 | 1010.9 |
| 20260504213059 | 80 | 200 | 4.0 | 9.0 | 0.00 | 0.11 | 0.11 | 47 | 1010.9 |
| 20260504212554 | 80 | 273 | 3.0 | 5.0 | 0.00 | 0.11 | 0.11 | 46 | 1010.9 |
| 20260504212052 | 79 | 170 | 5.0 | 8.0 | 0.00 | 0.11 | 0.11 | 47 | 1011.2 |
| 20260504211549 | 79 | 195 | 5.0 | 8.0 | 0.00 | 0.11 | 0.11 | 45 | 1011.4 |
| 20260504211045 | 79 | 108 | 5.0 | 10.0 | 0.00 | 0.11 | 0.11 | 48 | 1011.3 |
| 20260504210543 | 79 | 183 | 2.0 | 7.0 | 0.00 | 0.11 | 0.11 | 48 | 1011.3 |
| 20260504210039 | 79 | 149 | 3.0 | 7.0 | 0.00 | 0.11 | 0.11 | 47 | 1011.6 |
| 20260504205537 | 79 | 214 | 2.0 | 9.0 | 0.00 | 0.11 | 0.11 | 46 | 1011.7 |
| 20260504205035 | 80 | 137 | 10.0 | 11.0 | 0.00 | 0.11 | 0.11 | 46 | 1011.5 |
| 20260504204533 | 80 | 151 | 2.0 | 9.0 | 0.00 | 0.11 | 0.11 | 46 | 1011.6 |
| 20260504204032 | 80 | 174 | 2.0 | 10.0 | 0.00 | 0.11 | 0.11 | 45 | 1011.8 |
| 20260504203529 | 80 | 244 | 4.0 | 8.0 | 0.00 | 0.11 | 0.11 | 44 | 1011.4 |
| 20260504203027 | 80 | 263 | 6.0 | 11.0 | 0.00 | 0.11 | 0.11 | 43 | 1011.6 |
| 20260504202522 | 81 | 178 | 3.0 | 8.0 | 0.00 | 0.11 | 0.11 | 43 | 1011.5 |
| 20260504202019 | 81 | 206 | 3.0 | 7.0 | 0.00 | 0.11 | 0.11 | 41 | 1011.3 |
| 20260504201516 | 80 | 199 | 1.0 | 8.0 | 0.00 | 0.11 | 0.11 | 43 | 1011.5 |
| 20260504201014 | 81 | 300 | 8.0 | 9.0 | 0.00 | 0.11 | 0.11 | 42 | 1011.4 |
| 20260504200510 | 80 | 211 | 4.0 | 9.0 | 0.00 | 0.11 | 0.11 | 42 | 1011.5 |
| 20260504200007 | 81 | 324 | 8.0 | 18.0 | 0.00 | 0.11 | 0.11 | 42 | 1011.5 |
| 20260504195503 | 81 | 253 | 7.0 | 9.0 | 0.00 | 0.11 | 0.11 | 42 | 1011.8 |
| 20260504195000 | 81 | 174 | 2.0 | 6.0 | 0.00 | 0.11 | 0.11 | 43 | 1011.7 |
| 20260504194455 | 81 | 191 | 3.0 | 13.0 | 0.00 | 0.11 | 0.11 | 42 | 1011.8 |
| 20260504193951 | 80 | 210 | 3.0 | 8.0 | 0.00 | 0.11 | 0.11 | 43 | 1011.7 |
| 20260504193449 | 81 | 49 | 2.0 | 10.0 | 0.00 | 0.11 | 0.11 | 44 | 1011.7 |